Location: *
(37.9500°N, 27.3666°E)
Time: 15:03:57
(UTC+00:00)

Cosmos 44 - Pass Details

Date: 24 October 2021
Orbit: 580 x 782 km, 65.1° (Epoch: 06 December)

Event Time Altitude Azimuth Distance (km) Brightness Sun altitude
Rises 16:51:26 0° 217° (SW) 3,242 7.3 -18.5°
Reaches altitude 10° 16:53:51 10° 220° (SW) 2,325 6.5 -19.0°
Maximum altitude 16:59:12 65° 302° (WNW) 858 3.9 -20.0°
Enters shadow 17:04:09 12° 24° (NNE) 2,178 5.6 -21.0°
